Location: Kalberh�ni
(46.4610°N, 7.2453°E)
Time: 22:10:35
(UTC+00:00)

USA 229 - Pass Details

Date: 26 October 2021
Orbit: 946 x 1266 km, 63.4° (Epoch: 25 November)

Event Time Altitude Azimuth Distance (km) Brightness Sun altitude
Exits shadow 02:16:40 13° 147° (SSE) 2,984 6.0 -39.0°
Drops below altitude 10° 02:17:21 10° 147° (SSE) 3,216 6.2 -38.9°
Sets 02:20:10 0° 146° (SSE) 4,198 6.9 -38.4°
